Home   Weather   El Aaiún   Past weeks

Past Weather in El Aaiún, Western Sahara — Yesterday and Last 2 Weeks

75 °F


Feels Like: 76 °F
Forecast: 70 / 85 °F
Wind: 1 mph from North

Location: Laayoune/Hassan Isl

Current Time: Oct 28, 2016 at 5:15:37 PM

Latest Report: Oct 28, 2016 at 4:00 PM

Visibility: 5 mi

Pressure: 30.04 "Hg

Humidity: 78%

Dew Point: 68 °F

Location of El AaiúnLocation

Past Weather in El Aaiún — Graph


El Aaiún Temperature Yesterday

Maximum temperature yesterday: 82 °F (at 3:00 PM)
Minimum temperature yesterday: 64 °F (at 4:00 AM)
Average temperature yesterday: 72 °F

High & Low Weather Summary for the Past Weeks

High95 °F (Oct 17, 3:00 PM)100% (Oct 16, 7:00 AM)30.09 "Hg (Oct 16, 7:00 AM)
Low61 °F (Oct 15, 5:00 AM)17% (Oct 17, 2:00 PM)29.77 "Hg (Oct 24, 5:00 PM)
Average74 °F68%29.95 "Hg
* Reported Oct 13 4:00 PM — Oct 28 4:00 PM, El Aaiún, Weather by CustomWeather, © 2016

Note: Actual official high and low records may vary slightly from our data, if they occured in-between our weather recording intervals... More about our weather records


El Aaiún Weather History for the Previous 24 Hours

Scroll right to see more
Time TempWeatherWind HumidityBarometerVisibility
4:00 PM
Fri, Oct 28
75 °FOvercast.1 mph78%30.04 "Hg5 mi
3:00 PM75 °FOvercast.8 mph74%30.07 "Hg5 mi
2:00 PM77 °FOvercast.12 mph83%30.09 "Hg5 mi
1:00 PM81 °FOvercast.5 mph62%30.07 "Hg5 mi
12:00 PM79 °FOvercast.3 mph65%30.09 "Hg5 mi
11:00 AM75 °FOvercast.8 mph74%30.09 "Hg5 mi
10:00 AM73 °FOvercast.10 mph74%30.07 "Hg5 mi
9:00 AM70 °FLight rain. Overcast.12 mph83%30.01 "Hg5 mi
8:00 AM70 °FLight rain. Overcast.10 mph83%30.04 "Hg3 mi
7:00 AM70 °FLight rain. Overcast.7 mph94%30.07 "Hg3 mi
6:00 AM70 °FOvercast.2 mph94%30.01 "HgN/A
5:00 AM70 °FOvercast.5 mph88%30.04 "Hg4 mi
4:00 AM70 °FThunderstorms. Overcast.2 mph88%30.07 "Hg3 mi
3:00 AM72 °FOvercast.5 mph88%29.98 "Hg5 mi
2:00 AM72 °FPassing clouds.9 mph83%30.01 "Hg5 mi
1:00 AM72 °FPassing clouds.9 mph83%30.04 "Hg5 mi
12:00 AM72 °FPassing clouds.12 mph83%30.04 "Hg5 mi
11:00 PM
Thu, Oct 27
70 °FThunderstorms. Overcast.20 mph88%30.04 "Hg2 mi
10:00 PM72 °FThunderstorms. Overcast.7 mph88%30.01 "Hg1 mi
9:00 PM75 °FClear.13 mph69%29.98 "Hg10 mi
8:00 PM75 °FSunny.8 mph74%29.98 "Hg10 mi
7:00 PM77 °FPartly sunny.13 mph65%29.98 "Hg5 mi
6:00 PM81 °FBroken clouds.10 mph54%29.95 "Hg5 mi
5:00 PM79 °FLight rain. Partly sunny.5 mph61%29.95 "Hg4 mi
Weather by CustomWeather, © 2016

See weather overviewHow to use our weather pages